EW5807 Weather Reports


Display with metric or nautical units.
time (UTC)temp
F
wind
direction
speed
MPH
gust
MPH
rain 1hr
in
rain 24hr
in
rain mn
in
humidity
%
barometer
mb
20260904111546 51 125 0.0 1.0 0.00 0.00 0.00 61 1004.5
20260904110045 50 125 0.0 0.0 0.00 0.00 0.00 62 1004.3
20260904104544 49 125 0.0 0.0 0.00 0.00 0.00 59 1004.2
20260904103040 51 125 0.0 0.0 0.00 0.00 0.00 58 1004.1
20260904101535 51 125 0.0 0.0 0.00 0.00 0.00 58 1004.1
20260904100037 52 125 0.0 0.0 0.00 0.00 0.00 58 1004.0
20260904094541 52 138 0.0 1.0 0.00 0.00 0.00 58 1003.9
20260904093039 52 129 0.0 2.0 0.00 0.00 0.00 56 1003.9
20260904091535 51 132 0.0 2.0 0.00 0.00 0.00 56 1004.1
20260904090026 52 138 0.0 3.0 0.00 0.00 0.00 54 1004.1
20260904084523 52 152 0.0 3.0 0.00 0.00 0.00 51 1004.1
20260904083022 53 150 1.0 3.0 0.00 0.00 0.00 51 1004.1
20260904081548 53 138 0.0 3.0 0.00 0.00 0.00 48 1004.1
20260904080054 54 158 2.0 4.0 0.00 0.00 0.00 48 1003.9
20260904074542 54 155 0.0 2.0 0.00 0.00 0.00 46 1003.8
20260904073041 56 204 0.0 3.0 0.00 0.00 0.00 41 1003.8
20260904071536 56 167 1.0 4.0 0.00 0.00 0.00 40 1003.7
20260904070039 57 155 0.0 3.0 0.00 0.00 0.00 39 1003.3
20260904064539 56 210 0.0 4.0 0.00 0.00 0.00 39 1003.1
20260904063030 55 146 0.0 3.0 0.00 0.00 0.00 39 1003.0
20260904061535 54 158 0.0 1.0 0.00 0.00 0.00 38 1002.8
20260904060027 55 207 0.0 2.0 0.00 0.00 0.00 36 1002.5
20260904054521 56 203 0.0 0.0 0.00 0.00 0.00 36 1002.2
20260904053013 56 189 0.0 1.0 0.00 0.00 0.00 35 1002.1
20260904051511 56 200 0.0 2.0 0.00 0.00 0.00 34 1001.9
20260904050008 57 203 0.0 2.0 0.00 0.00 0.00 33 1001.9
20260904044508 58 207 0.0 2.0 0.00 0.00 0.00 32 1001.9
20260904043106 60 162 0.0 2.0 0.00 0.00 0.00 30 1001.7
20260904041559 62 146 0.0 2.0 0.00 0.00 0.00 30 1001.7
20260904040052 64 148 0.0 2.0 0.00 0.00 0.00 28 1001.6
20260904034550 64 157 0.0 3.0 0.00 0.00 0.00 27 1001.5
20260904033046 64 158 0.0 0.0 0.00 0.00 0.00 27 1001.5
20260904031544 65 139 0.0 3.0 0.00 0.00 0.00 26 1001.6
20260904030041 66 290 0.0 1.0 0.00 0.00 0.00 25 1001.2
20260904024538 68 288 0.0 7.0 0.00 0.00 0.00 24 1001.1
20260904023037 70 302 4.0 8.0 0.00 0.00 0.00 22 1000.7
20260904021540 73 288 8.0 15.0 0.00 0.00 0.00 20 1000.4
20260904020023 74 220 0.0 5.0 0.00 0.00 0.00 16 1000.2
20260904014520 75 206 3.0 7.0 0.00 0.00 0.00 16 1000.4
20260904013016 75 206 4.0 9.0 0.00 0.00 0.00 16 1000.5
20260904011514 74 217 4.0 8.0 0.00 0.00 0.00 17 1000.6
20260904010009 76 193 4.0 12.0 0.00 0.00 0.00 16 1000.9
20260904004505 78 201 6.0 14.0 0.00 0.00 0.00 15 1001.1
20260904003033 78 181 8.0 17.0 0.00 0.00 0.00 15 1001.3
20260904001551 78 200 9.0 14.0 0.00 0.00 0.00 15 1001.5
20260904000025 79 234 8.0 16.0 0.00 0.00 0.00 15 1001.7
20260903234524 79 208 6.0 18.0 0.00 0.00 0.00 15 1001.9
20260903233033 78 155 7.0 17.0 0.00 0.00 0.00 16 1002.2
20260903231518 78 221 8.0 14.0 0.00 0.00 0.00 16 1002.6
20260903230012 78 175 8.0 18.0 0.00 0.00 0.00 17 1003.0
20260903224517 78 238 7.0 18.0 0.00 0.00 0.00 16 1003.3
20260903223006 78 216 8.0 16.0 0.00 0.00 0.00 17 1003.6
20260903221504 77 214 9.0 15.0 0.00 0.00 0.00 17 1003.8
20260903220101 77 230 8.0 15.0 0.00 0.00 0.00 18 1004.1
20260903214557 76 214 10.0 16.0 0.00 0.00 0.00 18 1004.3
20260903213108 75 255 9.0 14.0 0.00 0.00 0.00 18 1004.7
20260903211552 76 221 12.0 20.0 0.00 0.00 0.00 18 1005.0
20260903210050 75 189 7.0 12.0 0.00 0.00 0.00 18 1005.2
20260903204546 75 264 5.0 14.0 0.00 0.00 0.00 19 1005.4
20260903203051 75 210 7.0 14.0 0.00 0.00 0.00 19 1005.7
20260903201541 74 244 4.0 14.0 0.00 0.00 0.00 20 1006.1
20260903200035 74 223 4.0 12.0 0.00 0.00 0.00 21 1006.4
20260903194533 74 187 7.0 17.0 0.00 0.00 0.00 21 1006.9
20260903193030 73 153 6.0 18.0 0.00 0.00 0.00 22 1007.0
20260903191538 72 231 8.0 13.0 0.00 0.00 0.00 22 1007.4
20260903190056 72 200 7.0 15.0 0.00 0.00 0.00 22 1007.6
20260903184604 71 172 5.0 12.0 0.00 0.00 0.00 23 1007.9
20260903183051 71 240 5.0 11.0 0.00 0.00 0.00 23 1008.2
20260903181553 70 218 4.0 12.0 0.00 0.00 0.00 23 1008.4
20260903180052 70 221 6.0 14.0 0.00 0.00 0.00 23 1008.8
20260903174547 69 239 7.0 14.0 0.00 0.00 0.00 24 1008.9
20260903173044 68 201 9.0 14.0 0.00 0.00 0.00 24 1009.2
20260903171545 67 224 4.0 13.0 0.00 0.00 0.00 25 1009.3
20260903170047 66 202 3.0 11.0 0.00 0.00 0.00 26 1009.4
20260903164541 65 238 6.0 12.0 0.00 0.00 0.00 26 1009.5
20260903163051 64 231 5.0 11.0 0.00 0.00 0.00 27 1009.5
20260903161537 64 207 4.0 15.0 0.00 0.00 0.00 27 1009.7
20260903160038 63 187 6.0 13.0 0.00 0.00 0.00 27 1009.8
20260903154534 63 220 6.0 11.0 0.00 0.00 0.00 27 1009.9
20260903153034 62 274 5.0 11.0 0.00 0.00 0.00 29 1010.2
20260903151533 60 219 7.0 10.0 0.00 0.00 0.00 30 1010.3
20260903150032 57 231 4.0 8.0 0.00 0.00 0.00 32 1010.4
20260903144530 56 205 3.0 8.0 0.00 0.00 0.00 33 1010.4
20260903143028 55 195 5.0 10.0 0.00 0.00 0.00 33 1010.4
20260903141526 55 241 3.0 7.0 0.00 0.00 0.00 33 1010.1
20260903140025 54 225 2.0 5.0 0.00 0.00 0.00 33 1010.0
20260903134522 53 237 1.0 4.0 0.00 0.00 0.00 33 1009.9
20260903133021 54 237 1.0 6.0 0.00 0.00 0.00 33 1009.7
20260903131520 55 226 2.0 8.0 0.00 0.00 0.00 32 1009.5
20260903130019 55 200 5.0 11.0 0.00 0.00 0.00 31 1009.4
20260903124517 56 218 5.0 10.0 0.00 0.00 0.00 29 1009.4
20260903123016 56 216 6.0 9.0 0.00 0.00 0.00 29 1009.2
20260903121524 56 209 5.0 9.0 0.00 0.00 0.00 30 1009.3
20260903120016 55 189 3.0 7.0 0.00 0.00 0.00 31 1009.2
20260903114512 55 208 4.0 8.0 0.00 0.00 0.00 30 1009.3
20260903113012 55 202 3.0 9.0 0.00 0.00 0.00 30 1009.1